Regional Weather Roundup
Issued by NWS Goodland, KS

Home | Current Version | Previous Version | Text Only | Print | Product List | Glossary Off
Versions: 1 2 3 4 5 6 7 8 9 10 11 12 13 14 15 16 17 18 19 20 21 22 23 24 25 26 27 28 29 30 31 32 33 34 35 36 37 38 39 40 41 42 43 44 45 46 47 48 49 50

000
ASUS43 KGLD 081608
RWRGLD

GOODLAND FORECAST AREA HOURLY WEATHER ROUNDUP
NATIONAL WEATHER SERVICE GOODLAND KS
900 AM MST MON FEB 08 2016

...OFFICIAL OBSERVATIONS...

CITY           SKY/WX    TMP DP  RH WIND       PRES   REMARKS
GOODLAND KS    SUNNY     28  14  55 NW21      30.37R WCI  15
HILL CITY KS   SUNNY     32  16  51 NW23G37   30.33R WCI  19
IMPERIAL NEB   CLOUDY    29  11  47 NW20G29   30.36R WCI  16
MCCOOK NEB     SUNNY     29  15  56 NW22G31   30.34R WCI  15
AKRON CO       CLOUDY    25  15  66 NW16      30.37S WCI  12
BURLINGTON CO  CLOUDY    27  16  63 NW26      30.37R WCI  12
LIMON CO       CLOUDY    21  13  71 W10       30.39R WCI  10
$$

...UNOFFICIAL OBSERVATIONS...

CITY           SKY/WX    TMP DP  RH WIND       PRES   REMARKS
COLBY KS       SUNNY     30  18  59 NW22      30.36R WCI  17
GOVE KS          N/A     32  32 100 MISG        N/A
LENORA KS        N/A     29  32 100 MISG        N/A
NORTON KS      SUNNY     28  16  59 W18       30.32  WCI  16
TRIBUNE KS     SUNNY     36  16  44 NW23G30   30.41R
KIT CARSON CO    N/A     29  17  61 MISG        N/A
$$



USA.gov is the U.S. government's official web portal to all federal, state and local government web resources and services.